Charter Quote
Worldwide +1-877-727-2538 Call
Select Language Lang
SAFETY RELIABILITY EXPERIENCE

Campo De Mayo Airport (SADO) - Jet Charter Services

AIRPORT INFORMATION
ICAOSADO
LOCATIONSan Miguel (Tucuman), Argentina
FACILITY TYPEAIRPORT
Runway Length (ft) Width (ft) Surface Type Elevation (ft)
36/18 5774 90 ASP 78.95082

At Paramount Business Jets you can hire chartered private jets to and from Campo De Mayo Airport with as little as 4 hours of notice. All flights booked via Paramount Business Jets are operated by certified direct air carriers that meet and exceed the FAA part 135 and 121 protocol or a foreign equivalent safety authority. Furthermore, Paramount Business Jets subscribes to ARGUS for their third party safety checks of operators, aircraft, and crews prior each and every flight to and from Campo De Mayo Airport and worldwide.

  • Quote a trip using Campo De Mayo Airport or call us 24/7 - 365 days a year at +1-877-727-2538.
Questions? Call +1-877-727-2538

METAR Weather Data at Campo De Mayo Airport, SADO

STATIONSADO
OBSERVEDThu Mar 14, 09:37 UTC
NOWTue Mar 19, 20:49 UTC
AGE131:12 hr ago
WINDS at 7 mph
VISIBILITY1.4 miles
CONDITIONSfog
METARSADO 140937Z 18006KT 0900 FG NSC 16/15 Q1014

Call us on +1-877-727-2538 (24 Hours) to Hire a Private Jet or Get a Quick Quote.

Find Airports Near any Location

Processing
...